Tiempo cada hora Al Hudaydah

Hoy, 31 Julio, Sábado

Tiempo Temperatura Precipitaciones Viento Presión Humedad
00:00 +32°C° 0.1 mm 2 mps 748 mmHg 59%
01:00 +34°C° 0 mm 3 mps 748 mmHg 58%
02:00 +34°C° 0 mm 4 mps 748 mmHg 57%
03:00 +34°C° 0 mm 7 mps 748 mmHg 56%
04:00 +34°C° 0 mm 5 mps 748 mmHg 57%
05:00 +33°C° 0 mm 4 mps 749 mmHg 57%
06:00 +32°C° 0 mm 2 mps 749 mmHg 58%
07:00 +34°C° 0 mm 3 mps 749 mmHg 55%
08:00 +35°C° 0 mm 3 mps 750 mmHg 52%
09:00 +36°C° 0 mm 4 mps 750 mmHg 48%
10:00 +37°C° 0 mm 4 mps 750 mmHg 46%
11:00 +39°C° 0 mm 5 mps 750 mmHg 43%
12:00 +40°C° 0 mm 5 mps 749 mmHg 41%
13:00 +40°C° 0 mm 5 mps 749 mmHg 43%
14:00 +40°C° 0 mm 5 mps 748 mmHg 44%
15:00 +39°C° 0 mm 5 mps 748 mmHg 46%
16:00 +37°C° 0.5 mm 4 mps 748 mmHg 50%
17:00 +36°C° 0.5 mm 4 mps 749 mmHg 54%
18:00 +35°C° 0.5 mm 4 mps 749 mmHg 58%
19:00 +35°C° 1.1 mm 4 mps 750 mmHg 60%
20:00 +34°C° 1.1 mm 3 mps 751 mmHg 62%
21:00 +32°C° 1.1 mm 2 mps 752 mmHg 64%
22:00 +32°C° 0.4 mm 2 mps 751 mmHg 65%
23:00 +32°C° 0.4 mm 2 mps 751 mmHg 65%

Mañana, 1 Agosto, Domingo

Tiempo Temperatura Precipitaciones Viento Presión Humedad
00:00 +32°C° 0.4 mm 2 mps 751 mmHg 65%
01:00 +33°C° 0 mm 3 mps 750 mmHg 65%
02:00 +33°C° 0 mm 4 mps 749 mmHg 65%
03:00 +33°C° 0 mm 5 mps 749 mmHg 65%
04:00 +33°C° 0 mm 4 mps 749 mmHg 65%
05:00 +33°C° 0 mm 3 mps 749 mmHg 66%
06:00 +33°C° 0 mm 3 mps 750 mmHg 66%
07:00 +33°C° 0 mm 3 mps 750 mmHg 64%
08:00 +34°C° 0 mm 3 mps 751 mmHg 62%
09:00 +34°C° 0 mm 3 mps 751 mmHg 60%
10:00 +35°C° 0 mm 3 mps 751 mmHg 58%
11:00 +36°C° 0 mm 4 mps 751 mmHg 56%
12:00 +37°C° 0 mm 4 mps 750 mmHg 55%
13:00 +37°C° 0 mm 5 mps 750 mmHg 54%
14:00 +37°C° 0 mm 5 mps 749 mmHg 54%
15:00 +38°C° 0 mm 6 mps 749 mmHg 53%
16:00 +38°C° 0 mm 6 mps 749 mmHg 55%
17:00 +36°C° 0 mm 5 mps 749 mmHg 57%
18:00 +36°C° 0 mm 5 mps 749 mmHg 59%
19:00 +35°C° 0.1 mm 5 mps 749 mmHg 61%
20:00 +35°C° 0.1 mm 4 mps 750 mmHg 64%
21:00 +34°C° 0.1 mm 3 mps 750 mmHg 66%
22:00 +33°C° 2.4 mm 3 mps 750 mmHg 70%
23:00 +31°C° 2.4 mm 2 mps 750 mmHg 74%

Pasado mañana, 2 Agosto, Lunes

Tiempo Temperatura Precipitaciones Viento Presión Humedad
00:00 +31°C° 2.4 mm 2 mps 750 mmHg 78%
01:00 +30°C° 1.5 mm 3 mps 750 mmHg 78%
02:00 +29°C° 1.5 mm 4 mps 751 mmHg 78%
03:00 +29°C° 1.5 mm 5 mps 751 mmHg 78%
04:00 +29°C° 0.5 mm 6 mps 751 mmHg 78%
05:00 +29°C° 0.5 mm 7 mps 751 mmHg 78%
06:00 +29°C° 0.5 mm 8 mps 751 mmHg 77%
07:00 +32°C° 0 mm 8 mps 751 mmHg 68%
08:00 +33°C° 0 mm 9 mps 750 mmHg 58%
09:00 +35°C° 0 mm 9 mps 750 mmHg 49%
10:00 +37°C° 0 mm 8 mps 749 mmHg 45%
11:00 +38°C° 0 mm 7 mps 749 mmHg 40%
12:00 +40°C° 0 mm 7 mps 749 mmHg 35%
13:00 +40°C° 0 mm 7 mps 748 mmHg 38%
14:00 +39°C° 0 mm 7 mps 748 mmHg 40%
15:00 +39°C° 0 mm 8 mps 748 mmHg 42%
16:00 +38°C° 0 mm 6 mps 748 mmHg 46%
17:00 +36°C° 0 mm 5 mps 748 mmHg 51%
18:00 +35°C° 0 mm 4 mps 748 mmHg 56%
19:00 +35°C° 0 mm 3 mps 749 mmHg 56%
20:00 +35°C° 0 mm 2 mps 750 mmHg 56%
21:00 +34°C° 0 mm 1 mps 750 mmHg 56%
22:00 +35°C° 0 mm 2 mps 750 mmHg 58%
23:00 +34°C° 0 mm 2 mps 750 mmHg 60%

3 Agosto, Martes

Tiempo Temperatura Precipitaciones Viento Presión Humedad
00:00 +34°C° 0 mm 3 mps 751 mmHg 62%
01:00 +34°C° 0.2 mm 2 mps 750 mmHg 59%
02:00 +34°C° 0.2 mm 2 mps 750 mmHg 57%
03:00 +34°C° 0.2 mm 2 mps 750 mmHg 55%
04:00 +34°C° 0.2 mm 2 mps 750 mmHg 54%
05:00 +34°C° 0.2 mm 2 mps 750 mmHg 53%
06:00 +34°C° 0.2 mm 2 mps 750 mmHg 52%
07:00 +34°C° 0.1 mm 2 mps 750 mmHg 49%
08:00 +35°C° 0.1 mm 2 mps 751 mmHg 46%
09:00 +35°C° 0.1 mm 1 mps 751 mmHg 43%
10:00 +37°C° 0 mm 2 mps 751 mmHg 42%
11:00 +38°C° 0 mm 3 mps 750 mmHg 41%
12:00 +40°C° 0 mm 4 mps 750 mmHg 40%
13:00 +40°C° 0 mm 4 mps 750 mmHg 41%
14:00 +40°C° 0 mm 5 mps 750 mmHg 43%
15:00 +40°C° 0 mm 6 mps 750 mmHg 44%
16:00 +39°C° 0.4 mm 5 mps 750 mmHg 48%
17:00 +37°C° 0.4 mm 4 mps 750 mmHg 52%
18:00 +35°C° 0.4 mm 3 mps 750 mmHg 56%
19:00 +35°C° 0.3 mm 2 mps 751 mmHg 54%
20:00 +35°C° 0.3 mm 2 mps 751 mmHg 53%
21:00 +34°C° 0.3 mm 2 mps 752 mmHg 51%
22:00 +33°C° 1.3 mm 3 mps 752 mmHg 55%
23:00 +33°C° 1.3 mm 3 mps 753 mmHg 58%

4 Agosto, Miércoles

Tiempo Temperatura Precipitaciones Viento Presión Humedad
00:00 +32°C° 1.3 mm 4 mps 753 mmHg 62%
01:00 +32°C° 0.2 mm 4 mps 752 mmHg 62%
02:00 +32°C° 0.2 mm 4 mps 752 mmHg 63%
03:00 +32°C° 0.2 mm 5 mps 752 mmHg 64%
04:00 +32°C° 0 mm 5 mps 752 mmHg 61%
05:00 +33°C° 0 mm 5 mps 752 mmHg 58%
06:00 +33°C° 0 mm 5 mps 751 mmHg 56%
07:00 +35°C° 0 mm 4 mps 752 mmHg 50%
08:00 +36°C° 0 mm 3 mps 752 mmHg 44%
09:00 +38°C° 0 mm 2 mps 753 mmHg 38%
10:00 +38°C° 0.1 mm 4 mps 753 mmHg 39%
11:00 +39°C° 0.1 mm 5 mps 753 mmHg 40%
12:00 +40°C° 0.1 mm 6 mps 753 mmHg 41%
13:00 +39°C° 0 mm 7 mps 752 mmHg 43%
14:00 +39°C° 0 mm 7 mps 752 mmHg 45%
15:00 +39°C° 0 mm 8 mps 751 mmHg 47%
16:00 +38°C° 0 mm 7 mps 751 mmHg 49%
17:00 +36°C° 0 mm 7 mps 752 mmHg 52%
18:00 +36°C° 0 mm 6 mps 752 mmHg 55%
19:00 +35°C° 0 mm 5 mps 752 mmHg 57%
20:00 +35°C° 0 mm 4 mps 752 mmHg 60%
21:00 +34°C° 0 mm 3 mps 753 mmHg 62%
22:00 +34°C° 0 mm 3 mps 752 mmHg 64%
23:00 +34°C° 0 mm 3 mps 752 mmHg 65%

5 Agosto, Jueves

Tiempo Temperatura Precipitaciones Viento Presión Humedad
00:00 +34°C° 0 mm 3 mps 752 mmHg 67%
01:00 +34°C° 0 mm 4 mps 752 mmHg 67%
02:00 +34°C° 0 mm 4 mps 751 mmHg 67%
03:00 +33°C° 0 mm 5 mps 751 mmHg 67%
04:00 +33°C° 0 mm 5 mps 751 mmHg 65%
05:00 +33°C° 0 mm 4 mps 751 mmHg 64%
06:00 +33°C° 0 mm 4 mps 751 mmHg 62%
07:00 +34°C° 0 mm 4 mps 752 mmHg 60%
08:00 +34°C° 0 mm 4 mps 752 mmHg 58%
09:00 +35°C° 0 mm 4 mps 752 mmHg 57%
10:00 +36°C° 0 mm 4 mps 752 mmHg 52%
11:00 +37°C° 0 mm 3 mps 752 mmHg 48%
12:00 +38°C° 0 mm 3 mps 752 mmHg 44%
13:00 +38°C° 0 mm 3 mps 751 mmHg 43%
14:00 +38°C° 0 mm 4 mps 751 mmHg 43%
15:00 +38°C° 0 mm 4 mps 751 mmHg 42%
16:00 +39°C° 0 mm 5 mps 751 mmHg 46%
17:00 +38°C° 0 mm 6 mps 750 mmHg 49%
18:00 +36°C° 0 mm 7 mps 750 mmHg 53%
19:00 +36°C° 0 mm 6 mps 751 mmHg 56%
20:00 +35°C° 0 mm 6 mps 751 mmHg 60%
21:00 +35°C° 0 mm 5 mps 751 mmHg 63%
22:00 +35°C° 0 mm 5 mps 751 mmHg 64%
23:00 +34°C° 0 mm 4 mps 751 mmHg 64%
Mostrar más

Necesitamos Su Consentimiento

Meteoprog y nuestros Proveedores de Servicios pueden almacenar y acceder a sus datos personales como cookies, identificadores de dispositivo u otras tecnologías similares de su dispositivo y procesar dichos datos para personalizar contenido y anuncios, además de ofrecer funciones de redes sociales y analizar el tráfico.

  • Almacenar y/o acceder a información en su dispositivo

    Se puede almacenar o acceder a cookies, identificadores de dispositivo u otra información de su dispositivo para los fines anteriormente indicados.

  • Anuncios y contenido personalizados, medición de anuncios y contenido, percepciones del público, y desarrollo de productos

    Los anuncios y el contenido pueden personalizarse en base a su perfil. Se pueden añadir más datos para personalizar mejor los anuncios y contenidos. Se puede medir el rendimiento de los anuncios y contenidos. Se puede obtener la percepción sobre el público que ha visto los anuncios y contenidos. Dichos datos pueden usarse para desarrollar o mejorar la experiencia del usuario, sistemas y software.

Al hacer clic en ‘Estoy De Acuerdo’ usted permitirá el uso de las cookies, identificadores de dispositivo, balizas web u otras tecnologías similares indicadas. Su configuración puede cambiarse desde el navegador de su dispositivo.

Para ciertos fines, los intereses legítimos pueden ser considerados por encima del consentimiento. Puede leer más sobre ello en nuestra Política de Privacidad y Cookies.